[[{"header":{"parameterUnit":"m.s-1","parameterCategory":1,"la1":30.2991,"la2":30.254,"lo1":-89.0895,"lo2":-89.0444,"dy":0.0017,"dx":0.0017,"nx":28,"ny":28,"refTime":"2024-12-26T09:00:00:Z","depth":0,"parameterNumber":2,"parameterNumberName":"U-component_of_WINDS"},"data":[0,0,0,0,0,0,0,0,0,0,0,0,0,0,0,0,0,0,0,0,0,0,0,0,0,0,0,0,0,0,0,0,0,0,0,0,0,0,0,0,0,0,0,0,0,0,0,0,0,0,0,0,0,0,0,0,0,0,-5.208,-5.208,0,-5.2087,-5.2087,-5.2087,-5.1936,-5.1932,-5.1928,-5.1924,-5.1934,-5.1938,-5.1942,0,0,0,0,0,0,0,0,0,0,0,0,0,-5.1941,-5.1944,-5.208,-5.208,-5.208,-5.2087,-5.2087,-5.2087,-5.1936,-5.1931,-5.1927,-5.1922,-5.1932,-5.1937,-5.1942,0,0,0,0,0,0,0,0,0,0,0,0,0,-5.198,-5.1945,-5.208,-5.2006,-5.1999,-5.2087,-5.2087,-5.2087,-5.1937,-5.1931,-5.1925,-5.192,-5.1931,-5.1937,-5.1943,-5.2102,0,0,-5.1961,-5.1964,0,0,0,0,0,0,0,0,-5.1978,-5.1985,-5.2017,-5.2011,-5.2004,-5.2004,-5.2041,-5.2092,-5.1939,-5.1961,-5.1924,-5.1917,-5.1962,-5.1965,-5.198,-5.2103,-5.2103,-5.1962,-5.1965,-5.1968,-5.197,0,0,0,0,0,0,0,-5.1975,-5.1984,-5.2083,-5.2017,-5.201,-5.1973,-5.1972,-5.205,-5.1996,-5.1959,-5.1948,-5.195,-5.1958,-5.1975,-5.1979,-5.2103,-5.1962,-5.1967,-5.1971,-5.1973,-5.2358,-5.2365,0,0,0,0,0,0,-5.1982,-5.1983,-5.2082,-5.2083,-5.1976,-5.1981,-5.1979,-5.201,-5.1995,-5.1986,-5.1956,-5.1943,-5.1967,-5.1972,-5.1979,-5.2166,-5.1968,-5.1974,-5.1977,-5.2352,-5.236,-5.2367,0,0,0,0,0,0,-5.198,-5.1993,-5.2082,-5.203,-5.2038,-5.199,-5.2025,-5.2014,-5.203,-5.1992,-5.1982,-5.1983,-5.1963,-5.197,-5.2073,-5.2164,-5.1976,-5.1982,-5.2344,-5.2354,-5.2363,-5.254,0,0,0,0,0,0,-5.1976,-5.1993,-5.2052,-5.2032,-5.2042,-5.2175,-5.2031,-5.2018,-5.2041,-5.2025,-5.2015,-5.2007,-5.1958,-5.2064,-5.2079,-5.2169,-5.1987,-5.2336,-5.2349,-5.236,-5.2526,-5.2555,-5.2579,0,0,0,0,0,-5.1972,-5.2102,-5.2056,-5.2069,-5.2115,-5.2181,-5.2186,-5.2126,-5.2049,-5.2109,-5.2084,-5.2008,-5.2151,-5.2076,-5.2091,-5.2184,-5.233,-5.2345,-5.2359,-5.2514,-5.2549,-5.2579,0,0,0,0,0,0,-5.2134,-5.2098,-5.2046,-5.2173,-5.2181,-5.2155,-5.2229,-5.2165,-5.2196,-5.218,-5.2105,-5.2104,-5.2219,-5.2212,-5.2129,-5.2339,-5.2227,-5.2246,-5.2339,-5.2373,-5.2399,-5.2399,-5.1992,0,0,0,0,0,-5.2184,-5.224,-5.2206,-5.2321,-5.2328,-5.2278,-5.2305,-5.2258,-5.2263,-5.2266,-5.2249,-5.2259,-5.2306,-5.2338,-5.238,-5.2524,-5.252,-5.2595,-5.2622,-5.2644,-5.2662,-5.2739,-5.2772,-5.2416,-5.2416,-5.2415,0,0,-5.2289,-5.2276,-5.2316,-5.2354,-5.2354,-5.2415,-5.2282,-5.2351,-5.2396,-5.2277,-5.2372,-5.2361,-5.2366,-5.2491,-5.2545,-5.2488,-5.2759,-5.2663,-5.2681,-5.2686,-5.2757,-5.2791,-5.2821,-5.2426,-5.2424,-5.2422,0,0,-5.2512,-5.2507,-5.2603,-5.2607,-5.2609,-5.2575,-5.2599,-5.2583,-5.257,-5.2664,-5.2577,-5.2629,-5.2712,-5.272,-5.2735,-5.2962,-5.2893,-5.2977,-5.3118,-5.3194,-5.3222,-5.3246,-5.3329,-5.3359,-5.2994,-5.2995,-5.2995,0,-5.2642,-5.2729,-5.2661,-5.2737,-5.2756,-5.265,-5.2748,-5.2755,-5.2772,-5.2788,-5.2724,-5.2826,-5.2822,-5.2948,-5.3003,-5.3018,-5.3044,-5.2978,-5.3223,-5.3247,-5.3269,-5.3347,-5.3378,-5.3005,-5.3004,-5.3003,-5.3002,0,-5.289,-5.2952,-5.3029,-5.3047,-5.3076,-5.3162,-5.3109,-5.3146,-5.3097,-5.307,-5.3169,-5.316,-5.3199,-5.3225,-5.3178,-5.3345,-5.3309,-5.3236,-5.3122,-5.3314,-5.3386,-5.3415,-5.302,-5.3016,-5.3013,-5.301,0,0,-5.3215,-5.3194,-5.3224,-5.3232,-5.3227,-5.3274,-5.3356,-5.3393,-5.3427,-5.3442,-5.351,-5.3583,-5.3515,-5.3532,-5.3485,-5.3552,-5.3734,-5.3469,-5.3468,-5.352,-5.3919,-5.3975,-5.4011,-5.3688,-5.3693,-5.3698,-5.3919,0,-5.3431,-5.357,-5.3512,-5.3656,-5.3714,-5.3614,-5.3686,-5.3692,-5.367,-5.3716,-5.3691,-5.3745,-5.365,-5.366,-5.3721,-5.3699,-5.3813,-5.3682,-5.3752,-5.3756,-5.3755,-5.4048,-5.4108,-5.4317,-5.3946,-5.3951,-5.3954,0,-5.3703,-5.3729,-5.388,-5.3866,-5.3888,-5.3953,-5.3983,-5.4028,-5.4033,-5.4012,-5.4032,-5.397,-5.4052,-5.3938,-5.405,-5.3962,-5.3988,-5.3981,-5.3988,-5.3993,-5.3868,-5.4063,-5.4382,-5.4414,-5.3998,-5.3994,-5.3991,0,-5.3926,-5.3999,-5.4099,-5.4108,-5.4094,-5.4143,-5.414,-5.4139,-5.4165,-5.4191,-5.4208,-5.4244,-5.4264,-5.4294,-5.4244,-5.4166,-5.4364,-5.4246,-5.435,-5.4352,-5.4397,-5.4395,-5.4727,-5.4412,-5.4412,-5.4411,-5.4411,0,-5.4175,-5.4272,-5.4199,-5.4261,-5.4366,-5.4299,-5.4405,-5.4391,-5.4392,-5.445,-5.4366,-5.4423,-5.4353,-5.4403,-5.4365,-5.4465,-5.4474,-5.4461,-5.445,-5.4469,-5.4471,-5.4485,-5.447,-5.4419,-5.4418,-5.4416,-5.4415,0,-5.4443,-5.4398,-5.45,-5.4479,-5.4476,-5.4555,-5.4537,-5.4594,-5.4566,-5.4641,-5.4654,-5.4611,-5.4666,-5.4619,-5.4672,-5.4647,-5.4779,-5.4747,-5.4778,-5.4769,-5.4877,-5.4868,-5.523,-5.5275,-5.4931,-5.4934,-5.4937,0,-5.4605,-5.4677,-5.4664,-5.4696,-5.4698,-5.4751,-5.4778,-5.4715,-5.4746,-5.4758,-5.4814,-5.4861,-5.4896,-5.4989,-5.4963,-5.5004,-5.4973,-5.5097,-5.4978,-5.4996,-5.4976,-5.4973,-5.4981,-5.5121,-5.5126,-5.5129,-5.5132,0,-5.4899,-5.4873,-5.4914,-5.4948,-5.4981,-5.5005,-5.5022,-5.5054,-5.4989,-5.5029,-5.5084,-5.5111,-5.5165,-5.5214,-5.5247,-5.5244,-5.5179,-5.5169,-5.5195,-5.5216,-5.5232,-5.5226,-5.4845,-5.5161,-5.5158,-5.5156,-5.5154,-5.5153,-5.5119,-5.5179,-5.5179,-5.5228,-5.5234,-5.5252,-5.5305,-5.5283,-5.5328,-5.5367,-5.5327,-5.5394,-5.5399,-5.5435,-5.5441,-5.5494,-5.5442,-5.548,-5.549,-5.5501,-5.5517,-5.5223,-5.5499,-5.5498,-5.5497,-5.5497,-5.5496,0,-5.5409,-5.5405,-5.545,-5.5477,-5.5516,-5.5449,-5.5464,-5.5502,-5.5562,-5.5571,-5.5607,-5.5671,-5.5719,-5.5697,-5.5739,-5.5785,-5.5756,-5.5798,-5.5795,-5.5796,-5.556,-5.5533,-5.5821,-5.5821,-5.5821,-5.5821,-5.5821,-5.5821,-5.5565,-5.5663,-5.5638,-5.5739,-5.5733,-5.5797,-5.5813,-5.583,-5.5837,-5.5912,-5.5951,-5.5936,-5.5933,-5.5974,-5.6015,-5.6008,-5.6028,-5.6082,-5.6064,-5.5844,-5.5812,-5.5782,-5.5756,-5.6086,-5.6086,-5.6295,-5.6297,-5.6298]},{"header":{"parameterUnit":"m.s-1","parameterCategory":1,"la1":30.2991,"la2":30.254,"lo1":-89.0895,"lo2":-89.0444,"dy":0.0017,"dx":0.0017,"nx":28,"ny":28,"refTime":"2024-12-26T09:00:00:Z","depth":0,"parameterNumber":3,"parameterNumberName":"V-component_of_WINDS"},"data":[0,0,0,0,0,0,0,0,0,0,0,0,0,0,0,0,0,0,0,0,0,0,0,0,0,0,0,0,0,0,0,0,0,0,0,0,0,0,0,0,0,0,0,0,0,0,0,0,0,0,0,0,0,0,0,0,0,0,-2.0614,-2.0614,0,-2.0567,-2.0567,-2.0566,-2.0508,-2.0507,-2.0506,-2.0505,-2.0457,-2.0457,-2.0457,0,0,0,0,0,0,0,0,0,0,0,0,0,-2.0652,-2.0652,-2.0614,-2.0614,-2.0613,-2.0568,-2.0567,-2.0566,-2.0508,-2.0507,-2.0506,-2.0505,-2.0458,-2.0457,-2.0457,0,0,0,0,0,0,0,0,0,0,0,0,0,-2.0624,-2.0651,-2.0614,-2.0579,-2.0575,-2.0568,-2.0567,-2.0566,-2.0509,-2.0507,-2.0506,-2.0504,-2.0458,-2.0457,-2.0457,-2.0481,0,0,-2.0455,-2.0454,0,0,0,0,0,0,0,0,-2.0625,-2.0622,-2.0584,-2.0581,-2.0577,-2.0542,-2.0563,-2.0537,-2.0509,-2.0534,-2.0505,-2.0504,-2.0487,-2.0484,-2.0478,-2.0478,-2.0476,-2.0455,-2.0454,-2.0454,-2.0454,0,0,0,0,0,0,0,-2.0627,-2.0624,-2.0596,-2.0584,-2.0579,-2.0565,-2.0559,-2.0558,-2.0519,-2.0531,-2.0527,-2.0522,-2.0484,-2.0479,-2.0476,-2.0476,-2.0455,-2.0454,-2.0454,-2.0453,-2.0492,-2.0493,0,0,0,0,0,0,-2.0635,-2.0626,-2.0597,-2.0594,-2.0598,-2.0565,-2.0559,-2.0555,-2.0518,-2.0512,-2.0524,-2.052,-2.048,-2.0477,-2.0475,-2.0499,-2.0454,-2.0453,-2.0453,-2.0491,-2.0492,-2.0494,0,0,0,0,0,0,-2.0636,-2.0633,-2.0599,-2.0609,-2.0603,-2.0566,-2.0562,-2.0555,-2.0549,-2.0513,-2.0505,-2.0525,-2.0479,-2.0475,-2.0479,-2.0497,-2.0453,-2.0453,-2.0489,-2.0491,-2.0493,-2.055,0,0,0,0,0,0,-2.0637,-2.0633,-2.0642,-2.0609,-2.0603,-2.0605,-2.0563,-2.0555,-2.0548,-2.0542,-2.0512,-2.0505,-2.0478,-2.048,-2.0479,-2.0495,-2.0452,-2.0487,-2.049,-2.0492,-2.0547,-2.0554,-2.056,0,0,0,0,0,-2.0639,-2.0661,-2.0643,-2.064,-2.0614,-2.0606,-2.0602,-2.057,-2.055,-2.0558,-2.0535,-2.0506,-2.0495,-2.0481,-2.0479,-2.0496,-2.0486,-2.0489,-2.0492,-2.0544,-2.0553,-2.056,0,0,0,0,0,0,-2.0697,-2.0656,-2.0636,-2.0648,-2.0631,-2.0596,-2.0606,-2.0581,-2.057,-2.0565,-2.0525,-2.0519,-2.0528,-2.0512,-2.0497,-2.0516,-2.0486,-2.0489,-2.0526,-2.0535,-2.0541,-2.0545,-2.0452,0,0,0,0,0,-2.0711,-2.0708,-2.0673,-2.0687,-2.0679,-2.0644,-2.064,-2.0616,-2.0597,-2.059,-2.0567,-2.0549,-2.0541,-2.0537,-2.0528,-2.0544,-2.0536,-2.0554,-2.0561,-2.0567,-2.057,-2.0576,-2.0584,-2.0504,-2.0504,-2.0504,0,0,-2.074,-2.0718,-2.0718,-2.0698,-2.0682,-2.068,-2.0639,-2.0638,-2.0636,-2.059,-2.0592,-2.0574,-2.0552,-2.0561,-2.0565,-2.0549,-2.059,-2.0571,-2.0576,-2.0575,-2.058,-2.0588,-2.0594,-2.0506,-2.0506,-2.0505,0,0,-2.0793,-2.0776,-2.0785,-2.077,-2.0746,-2.0723,-2.0725,-2.0694,-2.068,-2.0682,-2.0646,-2.0643,-2.0631,-2.0616,-2.0607,-2.0653,-2.0626,-2.0651,-2.0687,-2.0694,-2.07,-2.0705,-2.0721,-2.0727,-2.0654,-2.0654,-2.0654,0,-2.0832,-2.0828,-2.0793,-2.0795,-2.0786,-2.0744,-2.0753,-2.0739,-2.0714,-2.0709,-2.0692,-2.0675,-2.0657,-2.0662,-2.0673,-2.0668,-2.0668,-2.0655,-2.0702,-2.0707,-2.0711,-2.0726,-2.0732,-2.0657,-2.0657,-2.0657,-2.0656,0,-2.0877,-2.0875,-2.0885,-2.0862,-2.0854,-2.086,-2.0825,-2.0822,-2.0799,-2.0778,-2.0779,-2.0756,-2.0741,-2.074,-2.0718,-2.0742,-2.0733,-2.0709,-2.0678,-2.0723,-2.0736,-2.0741,-2.0662,-2.0661,-2.066,-2.0659,0,0,-2.0966,-2.0922,-2.0926,-2.0915,-2.0885,-2.0882,-2.0886,-2.0871,-2.0869,-2.0852,-2.0854,-2.0844,-2.0822,-2.0811,-2.0787,-2.0793,-2.083,-2.0768,-2.0767,-2.078,-2.0854,-2.0872,-2.0879,-2.0812,-2.0813,-2.0813,-2.0856,0,-2.1012,-2.1015,-2.0984,-2.0995,-2.0992,-2.0951,-2.0953,-2.0935,-2.0915,-2.0909,-2.0886,-2.088,-2.0851,-2.0844,-2.0848,-2.0824,-2.0844,-2.0821,-2.0812,-2.0812,-2.0819,-2.0886,-2.0905,-2.0946,-2.086,-2.0861,-2.0862,0,-2.1067,-2.1054,-2.1065,-2.1034,-2.1031,-2.1035,-2.1018,-2.1013,-2.0991,-2.0976,-2.0964,-2.0936,-2.0936,-2.0907,-2.0906,-2.0891,-2.0885,-2.0873,-2.0874,-2.0872,-2.084,-2.0885,-2.0958,-2.0964,-2.087,-2.0869,-2.0868,0,-2.113,-2.1115,-2.1119,-2.111,-2.1075,-2.1078,-2.1063,-2.1039,-2.1032,-2.1018,-2.1013,-2.0999,-2.0991,-2.098,-2.0949,-2.093,-2.0951,-2.092,-2.0938,-2.0939,-2.0944,-2.0944,-2.1017,-2.0941,-2.0941,-2.0941,-2.0941,0,-2.1185,-2.1193,-2.1147,-2.1149,-2.1157,-2.112,-2.1129,-2.111,-2.109,-2.1088,-2.1051,-2.105,-2.1009,-2.1003,-2.0978,-2.098,-2.0977,-2.0964,-2.0958,-2.0968,-2.0969,-2.0963,-2.0959,-2.0943,-2.0942,-2.0942,-2.0942,0,-2.1256,-2.1225,-2.1227,-2.1193,-2.1185,-2.1192,-2.1162,-2.1163,-2.114,-2.1138,-2.1135,-2.1099,-2.109,-2.1057,-2.104,-2.1024,-2.1034,-2.1021,-2.1041,-2.1037,-2.1057,-2.1056,-2.1128,-2.1136,-2.1056,-2.1057,-2.1058,0,-2.1294,-2.1299,-2.1265,-2.1261,-2.1248,-2.1242,-2.1235,-2.1198,-2.1192,-2.1167,-2.1171,-2.1159,-2.1147,-2.1134,-2.1106,-2.1092,-2.1079,-2.1105,-2.1077,-2.1086,-2.1078,-2.1079,-2.1078,-2.1112,-2.1113,-2.1113,-2.1114,0,-2.1363,-2.1347,-2.1338,-2.1323,-2.1315,-2.1302,-2.1286,-2.1285,-2.1244,-2.1239,-2.1229,-2.122,-2.1202,-2.119,-2.1172,-2.1156,-2.1128,-2.1123,-2.1127,-2.1137,-2.1148,-2.1142,-2.1058,-2.1122,-2.1121,-2.1121,-2.112,-2.112,-2.1418,-2.142,-2.1397,-2.1387,-2.1372,-2.1358,-2.1357,-2.1333,-2.1325,-2.1307,-2.1286,-2.1279,-2.1256,-2.1228,-2.1214,-2.1208,-2.1192,-2.1198,-2.1199,-2.1201,-2.1205,-2.115,-2.1204,-2.1204,-2.1204,-2.1203,-2.1203,0,-2.1484,-2.1467,-2.1459,-2.1438,-2.1431,-2.1405,-2.1386,-2.1382,-2.1376,-2.1357,-2.1346,-2.1334,-2.1322,-2.1293,-2.1278,-2.1278,-2.1265,-2.1275,-2.1275,-2.1272,-2.122,-2.1218,-2.1286,-2.1286,-2.1286,-2.1286,-2.1286,-2.1286,-2.1518,-2.1521,-2.1503,-2.1497,-2.1479,-2.1472,-2.1463,-2.145,-2.1434,-2.1423,-2.1413,-2.1394,-2.1371,-2.1354,-2.1341,-2.1333,-2.1329,-2.1343,-2.1331,-2.1283,-2.1275,-2.1268,-2.1266,-2.1343,-2.1343,-2.1383,-2.1383,-2.1384]}]]